owner,sensor,date,latitude,longitude,vertical_datum,sea_water_temperature,qcFlag
Shell,ioos:station:wmo:42873:2,2021-09-28T12:48:00Z,28.1937,-89.1760,10.9,28.6,11111222
Shell,ioos:station:wmo:42873:2,2021-09-28T12:58:00Z,28.1938,-89.1759,10.9,28.6,11111222
Shell,ioos:station:wmo:42873:2,2021-09-28T13:08:00Z,28.1938,-89.1760,10.8,28.6,11111222
Shell,ioos:station:wmo:42873:2,2021-09-28T13:18:00Z,28.1937,-89.1759,10.9,28.6,11111222
Shell,ioos:station:wmo:42873:2,2021-09-28T13:28:00Z,28.1938,-89.1760,11.0,28.6,11111222
Shell,ioos:station:wmo:42873:2,2021-09-28T13:38:00Z,28.1940,-89.1759,11.1,28.6,11111222
Shell,ioos:station:wmo:42873:2,2021-09-28T13:48:00Z,28.1938,-89.1760,11.1,28.6,11111222
Shell,ioos:station:wmo:42873:2,2021-09-28T13:58:00Z,28.1937,-89.1759,11.0,28.6,11111222
Shell,ioos:station:wmo:42873:2,2021-09-28T14:08:00Z,28.1937,-89.1759,11.0,28.6,11111222
Shell,ioos:station:wmo:42873:2,2021-09-28T14:18:00Z,28.1938,-89.1759,11.0,28.6,11111222
Shell,ioos:station:wmo:42873:2,2021-09-28T14:28:00Z,28.1939,-89.1760,11.0,28.6,11111222
Shell,ioos:station:wmo:42873:2,2021-09-28T14:38:00Z,28.1937,-89.1759,11.0,28.7,11111222
Shell,ioos:station:wmo:42873:2,2021-09-28T14:48:00Z,28.1937,-89.1760,11.0,28.8,11111222
Shell,ioos:station:wmo:42873:2,2021-09-28T14:58:00Z,28.1937,-89.1760,11.0,28.8,11111222
Shell,ioos:station:wmo:42873:2,2021-09-28T15:08:00Z,28.1938,-89.1760,11.0,28.8,11111222
Shell,ioos:station:wmo:42873:2,2021-09-28T15:18:00Z,28.1939,-89.1760,10.9,28.8,11111222
Shell,ioos:station:wmo:42873:2,2021-09-28T15:28:00Z,28.1939,-89.1760,10.9,28.8,11111222
Shell,ioos:station:wmo:42873:2,2021-09-28T15:38:00Z,28.1938,-89.1760,10.9,28.8,11111222
Shell,ioos:station:wmo:42873:2,2021-09-28T15:48:00Z,28.1938,-89.1760,10.8,28.8,11111222
Shell,ioos:station:wmo:42873:2,2021-09-28T15:58:00Z,28.1937,-89.1760,10.8,28.8,11111222
Shell,ioos:station:wmo:42873:2,2021-09-28T16:08:00Z,28.1939,-89.1759,10.9,28.8,11111222
Shell,ioos:station:wmo:42873:2,2021-09-28T16:18:00Z,28.1938,-89.1759,11.0,28.8,11111222
Shell,ioos:station:wmo:42873:2,2021-09-28T16:28:00Z,28.1938,-89.1759,11.1,28.8,11111222
Shell,ioos:station:wmo:42873:2,2021-09-28T16:38:00Z,28.1937,-89.1759,11.1,28.8,11111222
Shell,ioos:station:wmo:42873:2,2021-09-28T16:48:00Z,28.1937,-89.1759,11.0,28.8,11111222
Shell,ioos:station:wmo:42873:2,2021-09-28T16:58:00Z,28.1938,-89.1760,11.0,28.8,11111222
Shell,ioos:station:wmo:42873:2,2021-09-28T17:08:00Z,28.1937,-89.1759,11.0,28.8,11111222
Shell,ioos:station:wmo:42873:2,2021-09-28T17:18:00Z,28.1936,-89.1759,11.0,28.8,11111222
Shell,ioos:station:wmo:42873:2,2021-09-28T17:28:00Z,28.1938,-89.1760,11.0,28.8,11111222
Shell,ioos:station:wmo:42873:2,2021-09-28T17:38:00Z,28.1937,-89.1759,11.0,28.8,11111222
Shell,ioos:station:wmo:42873:2,2021-09-28T17:48:00Z,28.1937,-89.1759,11.0,28.8,11111222
Shell,ioos:station:wmo:42873:2,2021-09-28T17:58:00Z,28.1938,-89.1759,11.0,28.8,11111222
Shell,ioos:station:wmo:42873:2,2021-09-28T18:08:00Z,28.1938,-89.1760,11.0,28.8,11111222
Shell,ioos:station:wmo:42873:2,2021-09-28T18:18:00Z,28.1937,-89.1760,10.9,28.8,11111222
Shell,ioos:station:wmo:42873:2,2021-09-28T18:28:00Z,28.1947,-89.1761,10.9,28.7,11111222
Shell,ioos:station:wmo:42873:2,2021-09-28T18:38:00Z,28.1937,-89.1759,11.0,28.8,11111222
Shell,ioos:station:wmo:42873:2,2021-09-28T18:48:00Z,28.1937,-89.1759,10.9,28.8,11111222
Shell,ioos:station:wmo:42873:2,2021-09-28T18:58:00Z,28.1937,-89.1759,11.0,28.8,11111222
Shell,ioos:station:wmo:42873:2,2021-09-28T19:08:00Z,28.1939,-89.1759,10.9,28.8,11111222
Shell,ioos:station:wmo:42873:2,2021-09-28T19:18:00Z,28.1937,-89.1759,10.9,28.8,11111222
Shell,ioos:station:wmo:42873:2,2021-09-28T19:28:00Z,28.1937,-89.1759,11.0,28.8,11111222
Shell,ioos:station:wmo:42873:2,2021-09-28T19:38:00Z,28.1937,-89.1759,10.8,28.8,11111222
Shell,ioos:station:wmo:42873:2,2021-09-28T19:49:00Z,28.1937,-89.1759,10.8,28.8,11111222
Shell,ioos:station:wmo:42873:2,2021-09-28T19:59:00Z,28.1938,-89.1759,10.8,28.8,11111222
Shell,ioos:station:wmo:42873:2,2021-09-28T20:09:00Z,28.1937,-89.1759,10.8,28.8,11111222
Shell,ioos:station:wmo:42873:2,2021-09-28T20:19:00Z,28.1939,-89.1759,10.9,28.8,11111222
Shell,ioos:station:wmo:42873:2,2021-09-28T20:29:00Z,28.1940,-89.1759,10.9,28.9,11111222
Shell,ioos:station:wmo:42873:2,2021-09-28T20:39:00Z,28.1938,-89.1760,10.9,28.9,11111222
Shell,ioos:station:wmo:42873:2,2021-09-28T20:49:00Z,28.1944,-89.1757,10.9,28.9,11111222
Shell,ioos:station:wmo:42873:2,2021-09-28T20:59:00Z,28.1937,-89.1759,10.9,29.0,11111222
Shell,ioos:station:wmo:42873:2,2021-09-28T21:09:00Z,28.1938,-89.1759,10.9,28.9,11111222
Shell,ioos:station:wmo:42873:2,2021-09-28T21:19:00Z,28.1937,-89.1759,10.9,29.0,11111222
Shell,ioos:station:wmo:42873:2,2021-09-28T21:29:00Z,28.1937,-89.1760,10.8,29.0,11111222
Shell,ioos:station:wmo:42873:2,2021-09-28T21:39:00Z,28.1938,-89.1760,10.8,29.1,11111222
Shell,ioos:station:wmo:42873:2,2021-09-28T21:49:00Z,28.1937,-89.1759,10.8,29.1,11111222
Shell,ioos:station:wmo:42873:2,2021-09-28T21:59:00Z,28.1937,-89.1759,10.8,29.0,11111222
Shell,ioos:station:wmo:42873:2,2021-09-28T22:09:00Z,28.1937,-89.1759,10.8,29.1,11111222
Shell,ioos:station:wmo:42873:2,2021-09-28T22:19:00Z,28.1938,-89.1759,11.1,29.1,11111222
Shell,ioos:station:wmo:42873:2,2021-09-28T22:29:00Z,28.1938,-89.1760,11.1,29.0,11111222
Shell,ioos:station:wmo:42873:2,2021-09-28T22:39:00Z,28.1860,-89.1790,11.2,29.1,11111222
Shell,ioos:station:wmo:42873:2,2021-09-29T01:25:00Z,28.1939,-89.1760,11.2,29.0,11111222
Shell,ioos:station:wmo:42873:2,2021-09-29T01:35:00Z,28.1936,-89.1760,11.3,29.0,11111222
Shell,ioos:station:wmo:42873:2,2021-09-29T01:45:00Z,28.1937,-89.1760,11.3,29.0,11111222
Shell,ioos:station:wmo:42873:2,2021-09-29T01:55:00Z,28.1937,-89.1760,11.3,29.0,11111222
Shell,ioos:station:wmo:42873:2,2021-09-29T02:05:00Z,28.1937,-89.1760,11.2,29.0,11111222
Shell,ioos:station:wmo:42873:2,2021-09-29T02:15:00Z,28.1939,-89.1760,11.2,29.0,11111222
Shell,ioos:station:wmo:42873:2,2021-09-29T02:25:00Z,28.1937,-89.1760,11.2,29.0,11111222
Shell,ioos:station:wmo:42873:2,2021-09-29T02:35:00Z,28.1936,-89.1759,11.2,29.0,11111222
Shell,ioos:station:wmo:42873:2,2021-09-29T02:45:00Z,28.1936,-89.1760,11.3,29.0,11111222
Shell,ioos:station:wmo:42873:2,2021-09-29T02:55:00Z,28.1938,-89.1760,11.2,29.0,11111222
Shell,ioos:station:wmo:42873:2,2021-09-29T03:31:00Z,28.1940,-89.1759,11.2,29.0,11111222
Shell,ioos:station:wmo:42873:2,2021-09-29T03:41:00Z,28.1951,-89.1759,11.2,29.0,11111222
Shell,ioos:station:wmo:42873:2,2021-09-29T03:51:00Z,28.1934,-89.1760,11.2,29.0,11111222
Shell,ioos:station:wmo:42873:2,2021-09-29T04:01:00Z,28.1937,-89.1760,11.2,29.0,11111222
Shell,ioos:station:wmo:42873:2,2021-09-29T04:11:00Z,28.1937,-89.1760,11.1,29.0,11111222
Shell,ioos:station:wmo:42873:2,2021-09-29T04:21:00Z,28.1939,-89.1760,11.2,29.0,11111222
Shell,ioos:station:wmo:42873:2,2021-09-29T04:31:00Z,28.1938,-89.1759,11.2,29.0,11111222
Shell,ioos:station:wmo:42873:2,2021-09-29T04:41:00Z,28.1938,-89.1760,11.2,29.0,11111222
Shell,ioos:station:wmo:42873:2,2021-09-29T04:51:00Z,28.1939,-89.1760,11.2,29.1,11111222
Shell,ioos:station:wmo:42873:2,2021-09-29T05:01:00Z,28.1937,-89.1760,11.2,29.0,11111222
Shell,ioos:station:wmo:42873:2,2021-09-29T05:11:00Z,28.1937,-89.1761,11.2,29.0,11111222
Shell,ioos:station:wmo:42873:2,2021-09-29T05:21:00Z,28.1938,-89.1760,11.2,29.0,11111222
Shell,ioos:station:wmo:42873:2,2021-09-29T05:31:00Z,28.1937,-89.1760,11.2,29.0,11111222
Shell,ioos:station:wmo:42873:2,2021-09-29T05:42:00Z,28.1938,-89.1760,11.2,29.0,11111222
Shell,ioos:station:wmo:42873:2,2021-09-29T05:52:00Z,28.1938,-89.1760,11.2,29.0,11111222
Shell,ioos:station:wmo:42873:2,2021-09-29T06:02:00Z,28.1938,-89.1760,11.2,29.0,11111222
Shell,ioos:station:wmo:42873:2,2021-09-29T06:12:00Z,28.1941,-89.1761,11.2,29.0,11111222
Shell,ioos:station:wmo:42873:2,2021-09-29T06:22:00Z,28.1938,-89.1760,11.2,29.0,11111222
Shell,ioos:station:wmo:42873:2,2021-09-29T06:32:00Z,28.1938,-89.1759,11.2,29.0,11111222
Shell,ioos:station:wmo:42873:2,2021-09-29T06:42:00Z,28.1937,-89.1760,11.2,29.0,11111222
Shell,ioos:station:wmo:42873:2,2021-09-29T06:52:00Z,28.1938,-89.1760,11.1,29.0,11111222
Shell,ioos:station:wmo:42873:2,2021-09-29T07:02:00Z,28.1937,-89.1760,11.1,28.9,11111222
Shell,ioos:station:wmo:42873:2,2021-09-29T07:12:00Z,28.1937,-89.1759,11.1,29.0,11111222
Shell,ioos:station:wmo:42873:2,2021-09-29T07:22:00Z,28.1937,-89.1760,11.1,29.0,11111222
Shell,ioos:station:wmo:42873:2,2021-09-29T07:32:00Z,28.1937,-89.1760,11.1,29.0,11111222
Shell,ioos:station:wmo:42873:2,2021-09-29T07:42:00Z,28.1937,-89.1760,11.1,29.0,11111222
Shell,ioos:station:wmo:42873:2,2021-09-29T07:52:00Z,28.1941,-89.1762,11.1,29.0,11111222
Shell,ioos:station:wmo:42873:2,2021-09-29T08:02:00Z,28.1937,-89.1759,11.2,29.0,11111222
Shell,ioos:station:wmo:42873:2,2021-09-29T08:12:00Z,28.1938,-89.1760,11.2,29.0,11111222
Shell,ioos:station:wmo:42873:2,2021-09-29T08:22:00Z,28.1937,-89.1759,11.2,29.0,11111222
Shell,ioos:station:wmo:42873:2,2021-09-29T08:32:00Z,28.1937,-89.1759,11.2,29.0,11111222
Shell,ioos:station:wmo:42873:2,2021-09-29T08:42:00Z,28.1938,-89.1759,11.2,29.0,11111222
Shell,ioos:station:wmo:42873:2,2021-09-29T08:52:00Z,28.1938,-89.1762,11.2,29.0,11111222
Shell,ioos:station:wmo:42873:2,2021-09-29T09:02:00Z,28.1940,-89.1765,11.2,29.0,11111222
Shell,ioos:station:wmo:42873:2,2021-09-29T09:12:00Z,28.1941,-89.1768,11.1,29.0,11111222
Shell,ioos:station:wmo:42873:2,2021-09-29T09:22:00Z,28.1941,-89.1768,11.1,29.0,11111222
Shell,ioos:station:wmo:42873:2,2021-09-29T09:32:00Z,28.1940,-89.1768,11.0,29.0,11111222
Shell,ioos:station:wmo:42873:2,2021-09-29T09:42:00Z,28.1942,-89.1768,11.0,29.0,11111222
Shell,ioos:station:wmo:42873:2,2021-09-29T09:52:00Z,28.1943,-89.1769,11.1,29.0,11111222
Shell,ioos:station:wmo:42873:2,2021-09-29T10:02:00Z,28.1942,-89.1769,11.1,29.0,11111222
Shell,ioos:station:wmo:42873:2,2021-09-29T10:12:00Z,28.1941,-89.1768,11.2,28.9,11111222
Shell,ioos:station:wmo:42873:2,2021-09-29T10:22:00Z,28.1941,-89.1768,11.2,28.9,11111222
Shell,ioos:station:wmo:42873:2,2021-09-29T10:32:00Z,28.1941,-89.1768,11.1,28.9,11111222
Shell,ioos:station:wmo:42873:2,2021-09-29T10:42:00Z,28.1941,-89.1769,11.2,28.9,11111222
Shell,ioos:station:wmo:42873:2,2021-09-29T10:52:00Z,28.1941,-89.1768,11.3,28.9,11111222
Shell,ioos:station:wmo:42873:2,2021-09-29T11:02:00Z,28.1940,-89.1769,11.3,28.9,11111222
Shell,ioos:station:wmo:42873:2,2021-09-29T11:12:00Z,28.1941,-89.1769,11.4,28.9,11111222
Shell,ioos:station:wmo:42873:2,2021-09-29T11:22:00Z,28.1941,-89.1769,11.4,28.9,11111222
Shell,ioos:station:wmo:42873:2,2021-09-29T11:32:00Z,28.1941,-89.1769,11.2,28.9,11111222
Shell,ioos:station:wmo:42873:2,2021-09-29T11:42:00Z,28.1940,-89.1769,11.2,28.8,11111222
Shell,ioos:station:wmo:42873:2,2021-09-29T11:52:00Z,28.1941,-89.1768,11.1,28.9,11111222
Shell,ioos:station:wmo:42873:2,2021-09-29T12:02:00Z,28.1930,-89.1762,11.0,28.9,11111222
Shell,ioos:station:wmo:42873:2,2021-09-29T12:12:00Z,28.1940,-89.1769,11.1,28.9,11111222
Shell,ioos:station:wmo:42873:2,2021-09-29T12:32:00Z,28.1941,-89.1769,11.2,28.9,11111222
Shell,ioos:station:wmo:42873:2,2021-09-29T12:42:00Z,28.1942,-89.1769,11.2,28.9,11111222
Shell,ioos:station:wmo:42873:2,2021-09-29T12:52:00Z,28.1941,-89.1768,11.1,28.9,11111222
Shell,ioos:station:wmo:42873:2,2021-09-29T13:02:00Z,28.1942,-89.1768,11.1,28.9,11111222
Shell,ioos:station:wmo:42873:2,2021-09-29T13:18:00Z,28.1942,-89.1767,11.0,28.9,11111222
Shell,ioos:station:wmo:42873:2,2021-09-29T13:44:00Z,28.1944,-89.1767,11.1,28.9,11111222
Shell,ioos:station:wmo:42873:2,2021-09-29T13:54:00Z,28.1941,-89.1768,11.1,28.9,11111222
Shell,ioos:station:wmo:42873:2,2021-09-29T14:04:00Z,28.1941,-89.1770,11.1,28.9,11111222
Shell,ioos:station:wmo:42873:2,2021-09-29T14:14:00Z,28.1941,-89.1769,11.1,29.0,11111222
Shell,ioos:station:wmo:42873:2,2021-09-29T14:24:00Z,28.1940,-89.1769,11.1,29.0,11111222
Shell,ioos:station:wmo:42873:2,2021-09-29T14:34:00Z,28.1941,-89.1769,11.1,28.9,11111222
Shell,ioos:station:wmo:42873:2,2021-09-29T14:44:00Z,28.1939,-89.1771,11.2,28.9,11111222
Shell,ioos:station:wmo:42873:2,2021-09-29T14:54:00Z,28.1940,-89.1769,11.2,28.9,11111222
